This demonstration page uses our WeatherBlox Daily Observations layout. Learn more.

Left ArrowRight Arrow

34.16533, -84.80231

Hourly Observations for August 25, 2018

Temp ( °F °C ) Dew Point ( °F °C ) Humidity (%) Winds ( mph kmh ) Pressure ( in mb ) Visibility ( mi km ) Precip ( " mm )
12:53 am 00:53 Clear 68 20 60 15.6 76 76 VRB 3 6 30.14 1021 10 16 0.00 0.00
1:53 am 01:53 Clear 65 18.3 61 16.1 87 87 Calm 30.14 1021 10 16 0.00 0.00
2:53 am 02:53 Clear 65 18.3 60 15.6 84 84 VRB 3 6 30.14 1021 10 16 0.00 0.00
3:53 am 03:53 Clear 66 18.9 60 15.6 81 81 VRB 3 6 30.15 1021 10 16 0.00 0.00
4:53 am 04:53 Clear 66 18.9 60 15.6 81 81 VRB 3 6 30.15 1021 10 16 0.00 0.00
5:53 am 05:53 Clear 65 18.3 60 15.6 84 84 ESE 5 7 30.16 1021 10 16 0.00 0.00
6:53 am 06:53 Mostly Clear 65 18.3 60 15.6 84 84 ESE 3 6 30.18 1022 10 16 0.00 0.00
7:53 am 07:53 Mostly Sunny 65 18.3 60 15.6 84 84 ESE 3 6 30.20 1023 10 16 0.00 0.00
8:53 am 08:53 Mostly Sunny 69 20.6 60 15.6 73 73 E 5 7 30.21 1023 10 16 0.00 0.00
9:53 am 09:53 Sunny 71 21.7 62 16.7 73 73 E 5 7 30.22 1023 10 16 0.00 0.00
10:53 am 10:53 Partly Cloudy 76 24.4 63 17.2 64 64 VRB 7 11 30.22 1023 10 16 0.00 0.00
11:53 am 11:53 Mostly Cloudy 79 26.1 65 18.3 62 62 E 5 7 30.22 1024 10 16 0.00 0.00
12:53 pm 12:53 Mostly Sunny 82 27.8 66 18.9 58 58 SE 6 9 30.20 1023 10 16 0.00 0.00
1:53 pm 13:53 Mostly Cloudy 83 28.3 65 18.3 55 55 SSE 5 7 30.19 1022 10 16 0.00 0.00
2:53 pm 14:53 Sunny 85 29.4 66 18.9 53 53 VRB 6 9 30.18 1022 10 16 0.00 0.00
3:53 pm 15:53 Sunny 86 30 66 18.9 51 51 Calm 30.16 1021 10 16 0.00 0.00
4:53 pm 16:53 Sunny 87 30.6 66 18.9 50 50 E 6 9 30.14 1021 10 16 0.00 0.00
5:53 pm 17:53 Sunny 86 30 66 18.9 51 51 Calm 30.14 1021 9 14 0.00 0.00
6:53 pm 18:53 Sunny 85 29.4 66 18.9 53 53 VRB 3 6 30.13 1020 8 13 0.00 0.00
7:53 pm 19:53 Mostly Cloudy 79 26.1 72 22.2 79 79 Calm 30.14 1021 9 14 0.00 0.00
8:53 pm 20:53 Clear 73 22.8 70 21.1 90 90 Calm 30.15 1021 9 14 0.00 0.00
9:53 pm 21:53 Clear 74 23.3 68 20 82 82 Calm 30.17 1022 9 14 0.00 0.00
10:53 pm 22:53 Clear 73 22.8 68 20 84 84 ESE 3 6 30.19 1023 9 14 0.00 0.00
11:53 pm 23:53 Clear 72 22.2 68 20 87 87 Calm 30.19 1023 9 14 0.00 0.00

Powered by AerisWeather